Content
SEND FEEDBACK

Daily
Averages
Monthly
Summary
United States of America

BOSTON, MASSACHUSETTS


Home > North America > United States > Massachusetts
Elevation: 4 feet     Latitude: 42 22N     Longitude: 071 02W

WEATHER
 
SELECT A DAY
Number of Records: 202,449;   Date Range: 1/1/95 - 7/20/14
 
SHARE

PRINT THIS DATA

[ ← Previous Day ]
WEATHER ALMANAC - MARCH 19, 2013
[ Next Day → ]
[ °C ]   °F
Weather ElementAverageHighLow
Temperature33 °F36 °F (2:54 pm)28.9 °F (10:54 pm)
Dewpoint31.7 °F35.1 °F (2:54 pm)24.1 °F (11:54 pm)
Humidity94.8 %100 % (7:54 am)82 % (11:54 pm)
Barometer29.82 in30.24 in (12:28 am)29.61 in (5:54 pm)
Wind Speed22 mph27.6 mph (6:54 am)
Wind Gust35.7 mph (2:07 pm)
Weather ElementAverage
Visibility2 mi
Wind DirectionESE (115.2 °)

Weather ElementTotal
Precipitation1.46 in
Heating Degree Days32.6 (Base 65)
Averaged from 54 records on March 19, 2013
WEATHER CONDITIONS BREAKOUT
WIND DIRECTION BREAKOUT
WEATHER BY HOUR - MARCH 19, 2013
[ °C ]   °F
Local TimeTemperatureDewpointHumidityBarometerVisibilityWind DirectionWind SpeedGust SpeedPrecipitationEventsConditions
12:28 AM30.2 °F26.6 °F86 %30.24 in0.8 miESE (110°)17.3 mph0.01 inSnowLight Snow
12:54 AM30.0 °F28.0 °F92 %30.22 in0.5 miEast (100°)18.4 mph0.02 inFog-SnowSnow
1:54 AM30.9 °F28.9 °F92 %30.17 in0.5 miESE (120°)23.0 mph0.04 inSnowLight Snow
2:54 AM30.9 °F28.9 °F92 %30.12 in0.5 miSE (130°)18.4 mph0.03 inSnowLight Snow
3:54 AM32.0 °F30.0 °F92 %30.11 in0.5 miESE (110°)20.7 mph0.02 inFog-SnowSnow
4:36 AM32.0 °F30.2 °F93 %30.08 in1.0 miEast (100°)23.0 mph31.1 mph0.03 inSnowLight Snow
4:45 AM32.0 °F30.2 °F93 %30.07 in0.8 miEast (100°)24.2 mph29.9 mph0.03 inSnowLight Snow
4:54 AM32.0 °F30.9 °F96 %30.06 in0.8 miEast (100°)25.3 mph31.1 mph0.04 inSnowLight Snow
5:16 AM32.0 °F30.2 °F93 %30.07 in0.2 miEast (90°)25.3 mph0.01 inFog-SnowHeavy Snow
5:54 AM32.0 °F30.9 °F96 %30.06 in0.8 miEast (90°)26.5 mph32.2 mph0.04 inSnowLight Snow
6:54 AM32.0 °F30.9 °F96 %30.03 in0.8 miEast (90°)27.6 mph32.2 mph0.03 inSnowLight Snow
7:54 AM32.0 °F32.0 °F100 %30.01 in0.8 miEast (100°)27.6 mph33.4 mph0.02 inSnowLight Snow
8:15 AM33.8 °F32.0 °F93 %29.99 in0.8 miEast (90°)23.0 mph0.00 inSnowLight Snow
8:30 AM33.8 °F33.8 °F100 %29.99 in0.8 miEast (90°)25.3 mph29.9 mph0.01 inSnowLight Snow
8:38 AM33.8 °F32.0 °F93 %29.98 in1.5 miEast (90°)25.3 mph33.4 mph0.01 inSnowLight Snow
8:54 AM33.1 °F33.1 °F100 %29.97 in1.5 miEast (90°)27.6 mph32.2 mph0.01 inSnowLight Snow
9:25 AM33.8 °F33.8 °F100 %29.95 in2.0 miEast (80°)26.5 mph32.2 mph0.01 inRainLight Ice Pellets
9:54 AM34.0 °F33.1 °F96 %29.94 in1.8 miEast (80°)25.3 mph32.2 mph0.02 inRainLight Ice Pellets
10:01 AM33.8 °F33.8 °F100 %29.93 in2.0 miEast (80°)24.2 mph0.01 inRainLight Ice Pellets
10:23 AM33.8 °F33.8 °F100 %29.91 in1.8 miEast (80°)24.2 mph33.4 mph0.03 inRainLight Ice Pellets
10:54 AM34.0 °F33.1 °F96 %29.89 in1.8 miEast (80°)25.3 mph33.4 mph0.07 inRainIce Pellets
11:31 AM33.8 °F33.8 °F100 %29.87 in2.0 miEast (80°)25.3 mph0.03 inRainLight Ice Pellets
11:54 AM34.0 °F33.1 °F96 %29.85 in2.0 miEast (80°)26.5 mph0.03 inRainLight Rain
12:26 PM33.8 °F33.8 °F100 %29.82 in3.0 miENE (70°)24.2 mph0.01 inRainLight Rain
12:54 PM35.1 °F34.0 °F96 %29.80 in4.0 miENE (70°)25.3 mph32.2 mph0.01 inRainLight Rain
1:29 PM35.6 °F33.8 °F93 %29.77 in2.0 miENE (70°)24.2 mph32.2 mph0.00 inRainLight Rain
1:43 PM35.6 °F33.8 °F93 %29.75 in1.8 miENE (70°)26.5 mph0.00 inLight Drizzle
1:54 PM35.1 °F34.0 °F96 %29.74 in2.0 miENE (70°)24.2 mph32.2 mph0.00 inLight Drizzle
2:07 PM35.6 °F33.8 °F93 %29.71 in1.5 miENE (70°)27.6 mph35.7 mph0.00 inRainLight Rain
2:54 PM36.0 °F35.1 °F97 %29.69 in1.2 miENE (60°)19.6 mph29.9 mph0.04 inRainRain
3:31 PM33.8 °F33.8 °F100 %29.72 in1.5 miNNE (30°)17.3 mph0.14 inRainRain
3:43 PM33.8 °F33.8 °F100 %29.70 in1.8 miNNE (30°)20.7 mph0.18 inRain-SnowLight Snow
3:54 PM34.0 °F33.1 °F96 %29.70 in2.0 miNNE (20°)19.6 mph0.19 inRain-SnowLight Snow
4:14 PM32.0 °F32.0 °F100 %29.70 in1.5 miNorth (350°)11.5 mph0.02 inSnowLight Snow
4:31 PM32.0 °F32.0 °F100 %29.64 in1.0 miNE (40°)26.5 mph31.1 mph0.03 inSnowLight Snow
4:39 PM33.8 °F33.8 °F100 %29.63 in0.8 miNE (40°)27.6 mph33.4 mph0.05 inSnowLight Snow
4:50 PM33.8 °F32.0 °F93 %29.63 in1.2 miNE (40°)25.3 mph33.4 mph0.05 inRain-SnowLight Snow
4:54 PM33.1 °F32.0 °F96 %29.63 in1.8 miNE (40°)24.2 mph33.4 mph0.05 inRain-SnowLight Snow
5:02 PM33.8 °F32.0 °F93 %29.63 in3.0 miNE (40°)25.3 mph31.1 mph0.01 inRain-SnowLight Snow
5:54 PM34.0 °F32.0 °F92 %29.61 in10.0 miNNE (30°)26.5 mph33.4 mph0.01 inOvercast
6:46 PM33.8 °F32.0 °F93 %29.62 in1.8 miNNE (20°)20.7 mph33.4 mph0.00 inSnowLight Snow
6:54 PM33.1 °F32.0 °F96 %29.61 in1.2 miNNE (20°)24.2 mph27.6 mph0.00 inSnowLight Snow
7:14 PM33.8 °F32.0 °F93 %29.61 in2.0 miNorth (10°)21.9 mph26.5 mph0.01 inSnowLight Snow
7:34 PM33.8 °F32.0 °F93 %29.61 in3.0 miNorth (10°)19.6 mph0.01 inSnowLight Snow
7:54 PM33.1 °F32.0 °F96 %29.61 in5.0 miNNE (20°)21.9 mph0.01 inRainLight Rain
8:54 PM34.0 °F32.0 °F92 %29.62 in6.0 miNNW (330°)10.4 mph20.7 mph0.00 inSnowLight Snow
9:13 PM33.8 °F30.2 °F87 %29.66 in2.5 miWNW (300°)13.8 mph0.01 inSnowLight Freezing Drizzle
9:29 PM32.0 °F30.2 °F93 %29.66 in2.0 miNW (310°)11.5 mph21.9 mph0.01 inSnowLight Freezing Drizzle
9:32 PM32.0 °F30.2 °F93 %29.66 in1.2 miNW (310°)11.5 mph21.9 mph0.02 inSnowLight Freezing Drizzle
9:42 PM32.0 °F30.2 °F93 %29.66 in1.2 miNW (310°)15.0 mph23.0 mph0.02 inSnowLight Snow
9:54 PM32.0 °F30.9 °F96 %29.67 in1.2 miNW (320°)15.0 mph0.03 inSnowLight Snow
10:54 PM28.9 °F27.0 °F92 %29.68 in1.2 miNNW (330°)18.4 mph26.5 mph0.00 inSnowLight Snow
11:02 PM30.2 °F26.6 °F86 %29.69 in3.0 miNW (320°)15.0 mph0.00 inSnowLight Snow
11:54 PM28.9 °F24.1 °F82 %29.69 in10.0 miNW (310°)17.3 mph23.0 mphOvercast
Hourly data recorded from KBOS, located miles away from Boston, Massachusetts







STORIES FROM OUR PARTNERS